GW5243 Weather Reports


Display with metric or nautical units.
time (UTC)temp
F
wind
direction
speed
MPH
gust
MPH
rain 1hr
in
rain 24hr
in
rain mn
in
humidity
%
barometer
mb
20260901140024 60 163 0.0 4.0 0.03 0.27 0.27 93 1017.6
20260901134530 60 56 0.0 2.0 0.03 0.27 0.27 95 1017.7
20260901133032 59 238 0.0 3.0 0.06 0.27 0.27 95 1017.6
20260901131521 59 36 0.0 2.0 0.08 0.27 0.27 95 1018.0
20260901130022 58 34 1.0 3.0 0.10 0.24 0.24 95 1017.8
20260901124527 58 86 0.0 2.0 0.13 0.24 0.24 95 1018.1
20260901123036 58 36 0.0 2.0 0.13 0.21 0.21 95 1018.3
20260901121530 58 165 0.0 3.0 0.14 0.19 0.19 94 1018.2
20260901120017 59 101 0.0 2.0 0.14 0.14 0.14 95 1018.3
20260901114537 59 33 0.0 2.0 0.11 0.11 0.11 95 1018.3
20260901113014 59 33 0.0 2.0 0.08 0.08 0.08 95 1018.3
20260901111510 59 33 0.0 2.0 0.05 0.05 0.05 94 1018.2
20260901110016 59 44 0.0 2.0 0.00 0.00 0.00 94 1017.8
20260901104521 59 111 0.0 2.0 0.00 0.00 0.00 93 1017.8
20260901103010 59 279 1.0 4.0 0.00 0.00 0.00 93 1017.3
20260901101506 59 84 0.0 2.0 0.00 0.00 0.00 93 1017.4
20260901100013 59 84 0.0 2.0 0.00 0.00 0.00 93 1017.2
20260901094529 59 112 0.0 1.0 0.00 0.00 0.00 93 1016.9
20260901093027 59 112 0.0 0.0 0.00 0.00 0.00 93 1017.0
20260901091505 59 112 0.0 2.0 0.00 0.00 0.00 93 1017.2
20260901090011 59 113 0.0 2.0 0.00 0.00 0.00 93 1016.9
20260901084513 59 71 0.0 2.0 0.00 0.00 0.00 93 1017.2
20260901083025 59 101 0.0 2.0 0.00 0.00 0.00 93 1017.2
20260901081528 59 9 0.0 2.0 0.00 0.00 0.00 94 1017.4
20260901080004 59 9 0.0 0.0 0.00 0.00 0.00 94 1017.4
20260901074518 59 9 0.0 1.0 0.00 0.00 0.00 93 1017.4
20260901073020 59 31 0.0 1.0 0.00 0.00 0.00 94 1017.5
20260901071529 58 32 0.0 2.0 0.00 0.00 0.00 94 1017.4
20260901070033 58 351 0.0 0.0 0.00 0.00 0.00 94 1017.5
20260901064511 58 351 0.0 0.0 0.00 0.00 0.00 94 1017.9
20260901063018 58 351 0.0 0.0 0.00 0.00 0.00 94 1017.6
20260901061521 58 351 0.0 0.0 0.00 0.00 0.00 95 1018.0
20260901060030 57 351 0.0 0.0 0.00 0.00 0.00 95 1018.2
20260901054529 57 351 0.0 0.0 0.00 0.00 0.00 95 1018.1
20260901053011 57 351 0.0 0.0 0.00 0.00 0.00 95 1018.1
20260901051520 56 351 0.0 0.0 0.00 0.00 0.00 96 1018.3
20260901050026 56 351 0.0 0.0 0.00 0.00 0.00 95 1018.3
20260901044535 56 351 0.0 0.0 0.00 0.00 0.00 94 1018.2
20260901043032 56 351 0.0 0.0 0.00 0.00 0.00 94 1018.0
20260901041518 56 351 0.0 0.0 0.00 0.00 0.00 93 1017.9
20260901040024 57 351 0.0 0.0 0.00 0.00 0.00 93 1018.0
20260901034535 57 351 0.0 0.0 0.00 0.00 0.00 94 1018.0
20260901033030 56 351 0.0 0.0 0.00 0.00 0.00 94 1018.1
20260901031536 56 351 0.0 0.0 0.00 0.00 0.00 92 1018.1
20260901030018 56 351 0.0 0.0 0.00 0.00 0.00 91 1017.9
20260901024527 57 351 0.0 0.0 0.00 0.00 0.00 91 1018.1
20260901023030 57 351 0.0 0.0 0.00 0.00 0.00 91 1018.2
20260901021516 57 351 0.0 0.0 0.00 0.00 0.00 89 1018.1
20260901020022 58 343 0.0 1.0 0.00 0.00 0.00 88 1018.1
20260901014526 58 343 0.0 2.0 0.00 0.00 0.00 86 1018.0
20260901013035 59 343 0.0 1.0 0.00 0.00 0.00 85 1018.0
20260901011534 59 351 0.0 2.0 0.00 0.00 0.00 85 1017.9
20260901010012 59 325 0.0 0.0 0.00 0.00 0.00 84 1018.0
20260901004524 60 325 0.0 0.0 0.00 0.00 0.00 83 1018.1
20260901003031 60 325 0.0 0.0 0.00 0.00 0.00 81 1018.1
20260901001538 61 325 0.0 0.0 0.00 0.00 0.00 81 1018.0
20260901000011 61 325 0.0 0.0 0.00 0.00 0.00 79 1017.9
20260831234517 63 325 0.0 0.0 0.00 0.00 0.00 77 1018.0
20260831233023 64 325 0.0 2.0 0.00 0.00 0.00 77 1017.9
20260831231526 64 317 0.0 0.0 0.00 0.00 0.00 77 1018.0
20260831230029 65 317 0.0 2.0 0.00 0.00 0.00 76 1018.2
20260831224531 66 316 1.0 2.0 0.00 0.00 0.00 74 1018.3
20260831223034 69 317 0.0 2.0 0.00 0.00 0.00 71 1018.0
20260831221532 73 326 0.0 2.0 0.00 0.00 0.00 60 1018.1
20260831220030 75 288 1.0 4.0 0.00 0.00 0.00 54 1018.0
20260831214537 76 5 2.0 5.0 0.00 0.00 0.00 52 1018.0
20260831213034 76 286 0.0 3.0 0.00 0.00 0.00 55 1018.0
20260831211532 76 323 0.0 2.0 0.00 0.00 0.00 54 1018.0
20260831210026 76 282 0.0 3.0 0.00 0.00 0.00 57 1018.1
20260831204531 75 271 0.0 3.0 0.00 0.00 0.00 59 1018.1
20260831203029 74 318 1.0 4.0 0.00 0.00 0.00 57 1018.4
20260831201531 75 341 0.0 5.0 0.00 0.00 0.00 56 1018.4
20260831200004 77 225 1.0 4.0 0.00 0.00 0.00 54 1018.4
20260831194508 78 247 1.0 9.0 0.00 0.00 0.00 53 1018.6
20260831193019 79 126 1.0 3.0 0.00 0.00 0.00 50 1018.6
20260831191517 78 319 3.0 8.0 0.00 0.00 0.00 49 1018.6
20260831190038 77 306 3.0 9.0 0.00 0.00 0.00 50 1018.6
20260831184505 77 242 2.0 7.0 0.00 0.00 0.00 50 1018.6
20260831183014 77 22 2.0 4.0 0.00 0.00 0.00 51 1018.9
20260831181515 76 180 1.0 5.0 0.00 0.00 0.00 45 1018.9
20260831180019 76 244 2.0 7.0 0.00 0.00 0.00 42 1019.3
20260831174526 76 323 2.0 5.0 0.00 0.00 0.00 41 1019.2
20260831173004 75 69 1.0 6.0 0.00 0.00 0.00 41 1019.7
20260831171513 75 65 1.0 5.0 0.00 0.00 0.00 41 1019.9
20260831170019 75 235 1.0 6.0 0.00 0.00 0.00 51 1019.9
20260831164526 74 219 0.0 5.0 0.00 0.00 0.00 50 1020.1
20260831163008 74 213 1.0 5.0 0.00 0.00 0.00 55 1020.2
20260831161511 73 5 1.0 5.0 0.00 0.00 0.00 57 1020.3
20260831160015 72 352 2.0 5.0 0.00 0.00 0.00 57 1020.4
20260831154548 72 250 1.0 6.0 0.00 0.00 0.00 59 1020.5
20260831153027 73 270 1.0 3.0 0.00 0.00 0.00 57 1020.4
20260831151506 72 155 1.0 3.0 0.00 0.00 0.00 59 1020.4
20260831150011 71 67 1.0 4.0 0.00 0.00 0.00 57 1020.5
20260831144518 71 182 0.0 7.0 0.00 0.00 0.00 61 1020.6
20260831143029 70 318 0.0 3.0 0.00 0.00 0.00 67 1020.7
20260831141530 71 209 0.0 3.0 0.00 0.00 0.00 65 1020.9